Regional Weather Roundup
Issued by NWS Green Bay, WI

Home | Current Version | Previous Version | Text Only | Print | Product List | Glossary On
Versions: 1 2 3 4 5 6 7 8 9 10 11 12 13 14 15 16 17 18 19 20 21 22 23 24 25 26 27 28 29 30 31 32 33 34 35 36 37 38 39 40 41 42 43 44 45 46 47 48 49 50
000
ASUS43 KGRB 242000
RWRGRB

NORTH-CENTRAL AND NORTHEAST WISCONSIN REGIONAL WEATHER ROUNDUP
NATIONAL WEATHER SERVICE GREEN BAY WI
200 PM CST SAT FEB 24 2018

WIZ005-009-010>012-018-019-242100-
NORTH CENTRAL WISCONSIN

CITY           SKY/WX    TMP DP  RH WIND       PRES   REMARKS
IRONWOOD       FAIR      32  17  54 E10       29.98F
MANITOWISH WTR NOT AVBL
ARBOR VITAE    NOT AVBL
EAGLE RIVER    FAIR      34  18  52 SE7       29.97S
LAND O LAKES   FAIR      36  19  51 E6        29.99F
RHINELANDER    CLOUDY    34  23  64 SE12      29.98F
PHILLIPS       CLOUDY    33  20  59 SE8       29.96S
ANTIGO         NOT AVBL
TOMAHAWK       NOT AVBL
MERRILL        CLOUDY    35  24  63 E8        29.97F
$$

WIZ013-073-242100-
NORTHEAST WISCONSIN

CITY           SKY/WX    TMP DP  RH WIND       PRES   REMARKS
IRON MOUNTAIN  FAIR      37  19  48 E9        30.02F
MARINETTE      FAIR      35  24  64 E10       30.10S
$$

WIZ017-030-035>037-045-242100-
CENTRAL WISCONSIN

CITY           SKY/WX    TMP DP  RH WIND       PRES   REMARKS
MEDFORD        NOT AVBL
WAUSAU         CLOUDY    33  23  66 E10       29.95F
MOSINEE        CLOUDY    34  25  69 E13       29.98F
MARSHFIELD     CLOUDY    33  24  69 E15       29.92F
WISC RAPIDS    CLOUDY    34  23  64 SE15G25   29.95F
STEVENS POINT  NOT AVBL
WAUPACA        NOT AVBL
SHAWANO        FAIR      37  27  66 E14G20    30.02F
CLINTONVILLE   PTSUNNY   37  26  64 E10       30.02F
WAUTOMA        CLOUDY    34  26  72 E12G20    29.97F
$$

WIZ038-039-048-051-242100-
FOX VALLEY

CITY           SKY/WX    TMP DP  RH WIND       PRES   REMARKS
NWS GREEN BAY  PTSUNNY   36  26  67 E14       30.04F
APPLETON       NOT AVBL
OSHKOSH        CLOUDY    35  28  75 E12       29.99F
FOND DU LAC    CLOUDY    36  26  67 SE16      29.99F
$$

WIZ022-050-052-242100-
EAST CENTRAL WISCONSIN

CITY           SKY/WX    TMP DP  RH WIND       PRES   REMARKS
EPHRAIM        NOT AVBL
WASHINGTON ISL NOT AVBL
STURGEON BAY   PTSUNNY   34  25  69 E10       30.10R
MANITOWOC      PTSUNNY   34  27  75 E13       30.05F
SHEBOYGAN      CLOUDY    35  28  75 E12       30.03F
$$

LMZ563-521-522-541>543-242100-
LAKESHORE

STATION/POSITION TIME  TEMP    WIND        PRES    VSBY  WAVE
                       AIR SEA DIR/SP/G                  HT/PER
                 (UTC) (F)     (DEG/KT/KT) (MB)    (MI)  (FT/S)
SHEBOYGAN LKSHOR 1900   33      90/ 11/ 12 1018.9F
KEWAUNEE LKSHORE 1930   35      70/  7/ 12 1018.0F
NORTHPORT PIER   1940   32                 1019.3F
SISTER BAY LKSHO 1920   42     120/ 13/ 17   N/A
MENOMINEE LKSHOR 1930   33      60/  6/  8 1018.7F
$$




USA.gov is the U.S. government's official web portal to all federal, state and local government web resources and services.